Location: Unspecified
(0.0000°N, 0.0000°E)
Time: 06:27:05
(UTC+00:00)

Hubble Space Telescope - Pass Details

Date: 08 August 2022
Orbit: 532 x 535 km, 28.5° (Epoch: 13 August)

Event Time Altitude Azimuth Distance (km) Brightness Sun altitude
Exits shadow 04:17:55 13° 151° (SSE) 1,588 3.3 -25.8°
Drops below altitude 10° 04:18:28 10° 147° (SSE) 1,770 3.6 -25.7°
Sets 04:20:54 0° 136° (SE) 2,660 4.7 -25.1°
